TimeEST,TemperatureF,Dew PointF,Humidity,Sea Level PressureIn,VisibilityMPH,Wind Direction,Wind SpeedMPH,Gust SpeedMPH,PrecipitationIn,Events,Conditions,WindDirDegrees,DateUTC
12:00 AM,30.2,28.4,93,29.68,5.0,West,10.4,17.3,N/A,Snow,Light Snow,280,2012-11-12 05:00:00
1:00 AM,30,25,75,29.72,10,West,13.8,,,,Overcast,270,2012-11-12 06:00:00
1:00 AM,30.2,24.8,80,29.72,15.0,West,12.7,19.6,N/A,,Overcast,270,2012-11-12 06:00:00
2:00 AM,28.4,23.0,80,29.73,15.0,West,10.4,17.3,N/A,,Overcast,280,2012-11-12 07:00:00
3:00 AM,28.4,23.0,80,29.73,15.0,West,8.1,-,N/A,,Overcast,280,2012-11-12 08:00:00
4:00 AM,28.4,23.0,80,29.73,15.0,West,11.5,-,N/A,,Overcast,270,2012-11-12 09:00:00
5:00 AM,28.4,19.4,69,29.75,15.0,WSW,10.4,-,N/A,,Overcast,250,2012-11-12 10:00:00
6:00 AM,28.4,19.4,69,29.77,15.0,WSW,8.1,-,N/A,,Overcast,250,2012-11-12 11:00:00
7:00 AM,28,20,62,29.77,10,WSW,6.9,,,,Overcast,240,2012-11-12 12:00:00
7:00 AM,28.4,19.4,69,29.77,15.0,WSW,5.8,-,N/A,,Overcast,240,2012-11-12 12:00:00
7:20 AM,28.4,19.4,69,29.77,15.0,WSW,10.4,-,N/A,Snow,Light Snow,250,2012-11-12 12:20:00
8:00 AM,26.6,19.4,74,29.78,20.0,WSW,5.8,-,N/A,Snow,Light Snow,250,2012-11-12 13:00:00
8:18 AM,26.6,19.4,74,29.78,20.0,WSW,6.9,-,N/A,,Mostly Cloudy,250,2012-11-12 13:18:00
8:53 AM,28.4,19.4,69,29.79,20.0,WSW,8.1,-,N/A,Snow,Light Snow,250,2012-11-12 13:53:00
9:00 AM,28.4,19.4,69,29.79,20.0,WSW,12.7,-,N/A,Snow,Light Snow,240,2012-11-12 14:00:00
10:00 AM,28.4,21.2,74,29.80,20.0,WSW,8.1,-,N/A,Snow,Light Snow,240,2012-11-12 15:00:00
11:00 AM,28.4,19.4,69,29.80,20.0,WSW,12.7,-,N/A,,Overcast,250,2012-11-12 16:00:00
12:00 PM,28.4,19.4,69,29.80,20.0,West,9.2,-,N/A,,Overcast,260,2012-11-12 17:00:00
12:29 PM,28.4,19.4,69,29.81,20.0,WNW,12.7,-,N/A,Snow,Light Snow,290,2012-11-12 17:29:00
1:00 PM,28,21,67,29.81,2,West,9.2,,,Snow,Light Snow,270,2012-11-12 18:00:00
1:00 PM,26.6,21.2,80,29.81,3.0,West,10.4,-,N/A,Snow,Light Snow,270,2012-11-12 18:00:00
2:00 PM,26.6,21.2,80,29.81,5.0,West,6.9,-,N/A,Snow,Light Snow,270,2012-11-12 19:00:00
3:00 PM,26.6,21.2,80,29.83,20.0,West,8.1,-,N/A,Snow,Light Snow,260,2012-11-12 20:00:00
3:19 PM,26.6,21.2,80,29.83,2.5,WNW,15.0,-,N/A,Snow,Light Snow,300,2012-11-12 20:19:00
3:30 PM,26.6,19.4,74,29.83,6.0,WNW,10.4,-,N/A,Snow,Light Snow,290,2012-11-12 20:30:00
4:00 PM,26.6,21.2,80,29.85,10.0,West,11.5,23.0,N/A,Snow,Light Snow Showers,270,2012-11-12 21:00:00
4:20 PM,26.6,17.6,69,29.85,20.0,WNW,11.5,-,N/A,,Mostly Cloudy,290,2012-11-12 21:20:00
5:00 PM,26.6,19.4,74,29.87,20.0,West,11.5,-,N/A,,Scattered Clouds,270,2012-11-12 22:00:00
6:00 PM,24.8,19.4,80,29.91,20.0,West,8.1,-,N/A,,Partly Cloudy,260,2012-11-12 23:00:00
7:00 PM,23,19,77,29.94,10,WSW,6.9,,,,,250,2012-11-13 00:00:00
7:00 PM,23.0,19.4,86,29.94,15.0,WSW,6.9,-,N/A,,Clear,250,2012-11-13 00:00:00
8:00 PM,24.8,19.4,80,29.95,15.0,WSW,8.1,-,N/A,,Mostly Cloudy,240,2012-11-13 01:00:00
9:00 PM,24.8,21.2,86,29.97,15.0,West,9.2,-,N/A,,Overcast,260,2012-11-13 02:00:00
9:11 PM,24.8,21.2,86,29.97,15.0,West,8.1,-,N/A,Snow,Light Snow,260,2012-11-13 02:11:00
10:00 PM,26.6,21.2,80,29.99,6.0,West,9.2,-,N/A,Snow,Light Snow,270,2012-11-13 03:00:00
11:00 PM,26.6,24.8,93,30.01,10.0,West,9.2,-,N/A,Snow,Light Snow,260,2012-11-13 04:00:00